Flag for Germany Weather past 2 weeks in Wismar, Mecklenburg-Western Pomerania, Germany

Now
59 °F

Overcast.


Feels Like: 60 °F
Forecast: 48 / 58 °F
Wind: 3 mph from Southwest

Location: Schwerin

Current Time: May 22, 2015 at 11:11:20 PM

Latest Report: May 22, 2015 at 10:00 PM


Visibility: 10 mi

Pressure: 30.16 "Hg

Humidity: 65%

Dew point: 47 °F

Location of WismarLocation

Historic Weather in Wismar — Graph

°F

Wismar temperature yesterday

Maximum temperature yesterday: 56 °F (at 7:00 PM)
Minimum temperature yesterday: 40 °F (at 6:00 AM)
Average temperature yesterday: 49 °F

Past Weeks' High & Low Weather Summary

 TemperatureHumidityPressure
High75 °F (May 12, 3:00 PM)97% (May 8, 6:00 AM)30.36 "Hg (May 8, 6:00 AM)
Low40 °F (May 16, 4:00 AM)40% (May 10, 6:00 PM)29.58 "Hg (May 19, 5:00 AM)
Average52 °F72%30.03 "Hg
* Reported May 7 10:00 PM — May 22 10:00 PM, Wismar, Weather by CustomWeather, © 2015

Note: Actual official high and low records may vary slightly from our data, if they occured in-between our weather recording intervals... More about our weather records

Advertising

Wismar weather history for previous 24 hours

 ConditionsComfort  
Time TempWeatherWind HumidityBarometerVisibility
10:00 PM
Fri, May 22
59 °FOvercast.3 mph65%30.16 "Hg10 mi
9:00 PM62 °FOvercast.3 mph61%30.16 "Hg17 mi
8:00 PM63 °FOvercast.2 mph57%30.17 "Hg16 mi
7:00 PM64 °FOvercast.2 mph55%30.18 "Hg18 mi
6:00 PM64 °FOvercast.5 mph51%30.19 "Hg19 mi
5:00 PM65 °FOvercast.5 mph49%30.20 "Hg19 mi
4:00 PM64 °FOvercast.5 mph50%30.21 "Hg19 mi
3:00 PM65 °FOvercast.5 mph50%30.23 "Hg13 mi
2:00 PM62 °FScattered clouds.5 mph49%30.24 "Hg16 mi
1:00 PM61 °FPassing clouds.3 mph52%30.27 "Hg13 mi
12:00 PM58 °FOvercast.3 mph57%30.28 "Hg17 mi
10:00 AM54 °FOvercast.2 mph70%30.30 "Hg12 mi
9:00 AM52 °FPartly sunny.2 mph77%30.30 "Hg6 mi
8:00 AM49 °FOvercast.1 mph83%30.30 "Hg9 mi
7:00 AM46 °FOvercast.1 mph86%30.30 "Hg11 mi
6:00 AM44 °FOvercast.2 mph87%30.29 "Hg11 mi
4:00 AM43 °FPassing clouds.2 mph90%30.29 "Hg11 mi
3:00 AM44 °FOvercast.2 mph88%30.29 "Hg14 mi
2:00 AM46 °FOvercast.1 mph86%30.29 "Hg15 mi
1:00 AM45 °FPassing clouds.2 mph86%30.29 "Hg17 mi
12:00 AM46 °FPassing clouds.2 mph84%30.29 "Hg18 mi
Weather by CustomWeather, © 2015

See weather overviewHow to use our weather pages